www.pogodaiklimat.ru
ПОГОДА в Стерджен Бэй
Время
и дата
15:56 24.10
16:56 24.10
17:56 24.10
18:56 24.10
19:56 24.10
20:56 24.10
21:56 24.10
22:56 24.10
23:56 24.10
00:56 25.10
01:56 25.10
02:56 25.10
03:56 25.10
04:56 25.10
05:56 25.10
06:56 25.10
07:56 25.10
08:56 25.10
09:56 25.10
10:56 25.10
11:56 25.10
12:11 25.10
12:56 25.10
13:56 25.10
14:56 25.10
15:56 25.10
16:35 25.10
16:56 25.10
17:15 25.10
17:43 25.10
17:56 25.10
18:00 25.10
18:30 25.10
18:56 25.10
19:20 25.10
19:41 25.10
19:56 25.10
20:08 25.10
20:18 25.10
20:41 25.10
20:56 25.10
21:24 25.10
21:56 25.10
22:40 25.10
22:56 25.10
23:56 25.10
00:15 26.10
00:33 26.10
Ветер
(напр.,м/с)
Видим. Явления Облачность Т
(С)
Тd
(С)
f
(%)
Тe
(С)
Тes
(С)
Комфортность P
(гПа)
Po
(гПа)
Тmin
(С)
Tmax
(С)
R
(мм)
R24
(мм)
S
(см)
СЗ 2 16 км 10/10 1170 м +2.8 -3.9 61 -2 -2 1024.5 997.4
СЗ 1 16 км 10/10 1050 м +2.2 -3.9 64 -1 -1 1025.0 997.7
СЗ 1 16 км 10/10 1050 м +2.2 -5.0 59 -1 -1 1025.6 998.4 +2.2 +3.3
С 2 16 км 10/10 1110 м +1.1 -6.1 59 -4 -4 1025.8 998.4
С 2 16 км 8/2 1230 м
[Ac]
+1.1 -6.1 59 -4 -4 1026.0 998.7
СЗ 2 16 км 5/0 3300 м
[Ac]
+0.6 -6.1 61 -4 -4 1026.3 999.0
СЗ 2 16 км ясно 0.0 -6.1 63 -5 -5 1026.6 999.0
СЗ 2 16 км ясно 0.0 -5.0 69 -5 -5 1026.4 999.0
СЗ 2 16 км ясно 0.0 -4.4 72 -5 -5 1026.4 999.0 +2.2
С 2 16 км ясно +0.6 -3.9 72 -5 -5 1026.5 999.0
СЗ 1 16 км 10/2 600 м
[Ac]
+0.6 -3.3 75 -4 -4 1026.5 999.0
С 1 16 км 5/5 600 м
[Ac]
+0.6 -2.8 78 -4 -4
С 1 16 км 10/5 600 м
[Ac]
+1.1 -2.8 75 -3 -3 1026.1 998.7
С 1 16 км 10/2 870 м
[Ac]
+0.6 -2.8 78 -4 -4 1026.5 999.0
штиль 0 16 км 8/0 3300 м
[Ac]
0.0 -2.2 85 -1 -1 1026.8 999.3 +1.1
СЗ 1 16 км 8/0 2850 м
[Ac]
+0.6 -2.2 81 -4 -4 1026.5 999.0
СЗ 1 16 км 2/2 870 м +1.1 -1.7 82 -3 -3 1026.9 999.3
С 2 16 км 10/2 390 м
[Ac]
+2.2 -1.1 79 -3 -2 1026.9 999.3
С 1 16 км 10/2 540 м
[Ac]
+2.8 -2.2 70 -1 0 1026.6 999.3
С 2 16 км 10/0 3000 м
[Ac]
+3.3 -2.2 67 -1 0 1025.8 998.4
СЗ 2 16 км 10/8 750 м
[Ac]
+3.3 -1.7 70 -1 -1 1025.5 998.0 -0.6 +3.9
СЗ 2 16 км 8/8 750 м +4.0 -2.0 65 0 +1 998.0
С 2 16 км 10/2 990 м
[Ac]
+3.9 -1.7 67 -1 +1 1025.1 997.7
С 1 16 км 2/0 2100 м
[Ac]
+3.3 -3.3 62 0 +4 1024.6 997.4
штиль 0 16 км 10/10 930 м +3.3 -3.3 62 +3 +3 1024.4 997.0
З 1 16 км слабый дождь 10/10 750 м +1.7 -1.7 78 -1 -1 1024.7 997.4
З 1 3 км неопределенные осадки, дымка 10/10 1080 м +1.0 -1.0 86 -2 -2 997.7
З 1 2 км слабый снег, дымка 10/10 480 м +0.6 -0.6 92 -3 -3 1025.1 997.7
З 1 5 км слабый снег, дымка 10/10 480 м +1.0 -1.0 86 -2 -2 997.7
З 1 3 км слабый снег, дымка 10/10 540 м +1.0 -1.0 86 -2 -2 997.7
З 1 3 км слабый снег, дымка 10/10 180 м 0.0 -0.6 96 -5 -5 1025.1 997.7 +3.9
З 1 2 км слабый снег, дымка 10/10 180 м 0.0 -1.0 93 -4 -4 997.7
СЗ 1 5 км слабый снег, дымка 10/10 180 м 0.0 -1.0 93 -4 -4 997.7
СЗ 1 5 км слабый снег, дымка 10/10 180 м 0.0 -0.6 96 -5 -5 1024.7 997.4
СЗ 1 10 км слабый снег, дымка 10/10 240 м 0.0 -1.0 93 -4 -4 997.0
СЗ 1 5 км слабый снег, дымка 10/10 300 м 0.0 -1.0 93 -4 -4 997.0
СЗ 1 6 км слабый снег, дымка 10/10 240 м 0.0 -0.6 96 -5 -5 1024.4 997.0
СЗ 1 8 км слабый снег, дымка 10/10 300 м 0.0 -1.0 93 -4 -4 996.7
СЗ 1 4 км слабый снег, дымка 10/10 300 м 0.0 -1.0 93 -4 -4 997.0
СЗ 1 6 км слабый снег, дымка 10/10 600 м 0.0 -1.0 93 -5 -5 997.0
СЗ 1 8 км слабый снег, дымка 10/10 300 м 0.0 -0.6 96 -5 -5 1024.3 997.0 0.3
СЗ 1 8 км слабый снег, дымка 10/10 360 м +1.0 0.0 93 -4 -4 997.0
СЗ 1 13 км слабый снег 10/10 360 м +0.6 -0.6 92 -4 -4 1024.8 997.4
СЗ 1 14 км 10/10 570 м 0.0 -1.0 93 -4 -4 997.0
СЗ 1 16 км слабый снег 10/10 510 м +0.6 -0.6 92 -4 -4 1024.1 996.7
СЗ 2 10 км слабый снег, дымка 10/10 420 м +0.6 -0.6 92 -5 -5 1023.7 996.4 +0.6 0.5
СЗ 2 13 км слабый снег 10/10 300 м +1.0 -1.0 86 -5 -5 996.7
СЗ 2 14 км слабый снег 10/10 300 м +1.0 -1.0 86 -5 -5
Местоположение метеостанции Door County Cherryland Airport: широта 44.8500 долгота -87.4167 высота над уровнем моря 221 м.
В архиве по умолчанию представлена погода в Стерджен Бэй за последние 1-2 суток. Обновление информации о фактической погоде в базе происходит ежечасно! Архивные данные за месяц целиком и за предыдущие месяцы Вы можете получить, выбрав интересующий диапазон дат из раскрывающегося списка и нажав кнопку "Ввод!".
Внимание! Архив погоды МЕТАР в базе сайта по станциям, не включенным в климатический монитор, хранится не более 60 дней. Нет смысла пытаться выбрать более раннюю дату.
*Определитесь, кто Вы:
Внимание! Время в таблицах - местное (без учета летнего времени). Для получения всемирного времени необходимо вычесть поправку, которая равна -6 ч.
Смотрите также архив погоды в соседних городах и на ближайших метеорологических станциях:
Партнеры нашего сайта:      
Пояснения к столбцам:
  • Ветер - указаны скорость ветра в м/с - средняя за 10 мин, порывы в срок и между сроками (в фигурных скобках) и направление, откуда дует ветер: С - северный,
  • СВ - северо-восточный, В - восточный, ЮВ - юго-восточный, Ю - южный, ЮЗ - юго-западный, З - западный, СЗ - северо-западный.
  • Видимость - горизонтальная дальность видимости в метрах или километрах. При видимости от 1 до 10 км при отсутствии осадков обычно наблюдается дымка, при ухудшении видимости до 1 км и менее - туман. В сухую погоду видимость может ухудшаться дымом, пылью или мглою.
  • Явления - указаны атмосферные явления, наблюдавшиеся в срок или в последний час перед сроком; фигурными скобками обозначены явления, наблюдавшиеся между сроками (за 1-3 часа до срока); квадратными скобками обозначены град или гололедные отложения с указанием их диаметра в мм.
  • Облачность - указаны через наклонную черту общая и нижняя облачность в баллах и высота нижней границы облаков в метрах; квадратными скобками обозначены формы облаков: Ci - перистые, Cs - перисто-слоистые, Cc - перисто-кучевые, Ac - высококучевые, As - высокослоистые, Sc - слоисто-кучевые, Ns - слоисто-дождевые, Cu - кучевые, Cb - кучево-дождевые. Подробнее классификацию облаков см. в Атласе облаков (PDF).
  • T - Температура воздуха - температура, измеренная на высоте 2 м над землей.
  • Td - Температура точки росы - температура, при понижении до которой содержащийся в воздухе водяной пар достигнет насыщения.
  • f - Относительная влажность воздуха - влажноcть воздуха, измеренная на высоте 2 м над землей.
  • Te - Эффективная температура - температура, которую ощущает одетый по сезону человек в тени. Характеристика душности погоды. При расчете учитывается влияние влажности воздуха и скорости ветра на теплоощущения человека.
  • Tes - Эффективная температура на солнце - температура, которую ощущает человек, с поправкой на солнечный нагрев. Характеристика знойности погоды. Зависит от высоты солнца над горизонтом, облачности и скорости ветра. Ночью, в пасмурную погоду, а также при ветре 12 м/с и более поправка равна нулю.
  • P - Атмосферное давление - приведенное к уровню моря атмосферное давление.
  • Po - Атмосферное давление - измеренное на уровне метеостанции атмосферное давление.
  • Tmin - Минимальная температура - минимум температуры воздуха на высоте 2 м над землей.
  • Tmax - Максимальная температура - максимум температуры воздуха на высоте 2 м над землей.
  • R - Количество осадков - Количество выпавших осадков за период времени, мм. При наведении курсора мыши на число - период времени, за который выпало указанное количество осадков.
  • R24 - Количество осадков - Количество выпавших осадков за 24 часа, мм.
  • S - Снежный покров - Высота снежного покрова, см. При наведении курсора мыши на число - состояние снежного покрова и степень покрытия местности в баллах.